#timestamp,LO_Frequency,Hit,StdDev 
1573542015.2,286046999.4,N
1573542035.0,286046997.4,N
1573542035.9,286046997.4,N
1573542055.8,286046998.3,N
1573542075.6,286047002.4,N
1573542095.4,286047001.5,N
1573542115.3,286046998.6,N
1573542135.1,286047001.7,N
1573542155.9,286047000.7,N
1573542175.7,286046999.8,N
1573542195.5,286047000.9,N
1573542215.4,286046998.3,N
1573542235.2,286046998.2,N
1573542255.0,286046996.9,N
1573542255.9,286046996.9,N
1573542275.8,286046997.8,N
1573542295.6,286046997.1,N
1573542315.5,286046997.8,N
1573542335.3,286046995.2,N
1573542355.1,286046997.1,N
1573542375.9,286047000.4,N
1573542395.7,286046998.8,N
1573542415.5,286046997.1,N
1573542435.4,286046996.6,N
1573542455.2,286046998.2,N
1573542475.1,286046997.5,N
1573542476.0,286046997.5,N
1573542495.8,286046998.3,N
1573542515.6,286047000.0,N
1573542535.5,286046998.2,N
1573542555.3,286047000.0,N
1573542575.1,286046998.2,N
1573542595.9,286046998.4,N
1573542615.7,286046998.4,N
1573542635.6,286046999.5,N
1573542655.4,286046998.2,N
1573542675.2,286047000.6,N
1573542695.1,286046998.9,N
1573542696.0,286046998.9,N
1573542715.8,286046997.1,N
1573542735.7,286047002.5,N
1573542755.5,286047000.2,N
1573542775.3,286047002.0,N
1573542795.2,286047002.7,N
1573542815.0,286046999.8,N
1573542815.9,286046999.8,N
1573542835.8,286047002.6,N
1573542855.6,286047000.7,N
1573542875.4,286047003.5,N
1573542895.3,286047003.0,N
1573542915.1,286047005.0,N
1573542935.8,286047009.1,Y
1573542955.7,286047008.5,P
1573542975.5,286047010.7,N
1573542995.4,286047011.3,N
1573543015.2,286047016.6,Y
1573543035.0,286047009.7,P
1573543035.9,286047009.7,P
1573543055.8,286047012.2,P
1573543075.6,286047011.0,Y
1573543095.5,286047002.4,P
1573543115.3,286047001.7,N
1573543135.1,286047004.4,N
1573543155.9,286047004.1,N
1573543175.7,286047000.6,N
1573543195.6,286047001.0,N
1573543215.4,286046996.5,N
1573543235.2,286046993.4,N
1573543255.1,286046993.5,N
1573543256.0,286046993.5,N
1573543275.8,286046991.8,N
1573543295.6,286046990.8,N
1573543315.5,286046987.4,N
1573543335.3,286046985.4,N
1573543355.2,286046982.1,N
1573543375.9,286046984.3,N
1573543395.7,286046984.9,N
1573543415.6,286046982.1,N
1573543435.4,286046984.2,N
1573543455.2,286046983.7,N
1573543475.1,286046984.5,N
1573543476.0,286046984.5,N
1573543495.8,286046986.7,N
1573543515.6,286046985.4,N
1573543535.5,286046987.5,N
1573543555.3,286046992.0,N
1573543575.2,286046989.0,N
1573543595.9,286046990.8,N
1573543615.7,286046992.1,N
1573543635.6,286046994.0,N
1573543655.4,286046997.6,N
1573543675.2,286046999.1,N
1573543695.1,286046997.0,N
1573543696.0,286046997.0,N
1573543715.8,286046997.1,N
1573543735.7,286046997.9,N
1573543755.5,286046993.8,N
1573543775.3,286046994.5,N
1573543795.2,286046992.8,N
1573543815.0,286046987.6,N
1573543815.9,286046987.6,N
1573543835.8,286046986.9,N
1573543855.6,286046988.6,N
1573543875.4,286046989.7,N
1573543895.3,286046986.9,N
1573543915.1,286046984.0,Y
1573543935.8,286046994.4,P
1573543955.7,286046994.4,N
1573543975.5,286046991.7,P
1573543995.4,286046990.8,Y
1573544015.2,286046997.2,P
1573544035.0,286046997.2,N
1573544035.9,286046997.2,N
1573544055.8,286046996.9,N
1573544075.6,286046999.3,N
1573544095.4,286047000.9,N
1573544115.3,286047000.1,N
1573544135.1,286047000.3,N
1573544155.9,286047000.9,N
1573544175.7,286047001.6,N
1573544195.5,286047001.9,N
1573544215.4,286047003.2,N
1573544235.2,286047003.4,N
1573544255.0,286047005.5,N
1573544255.9,286047005.5,N
1573544275.8,286047004.2,N
1573544295.6,286047001.4,N
1573544315.5,286047004.3,N
1573544335.3,286047001.7,N
1573544355.1,286047004.3,N
1573544375.9,286047005.7,N
1573544395.7,286047007.5,N
1573544415.5,286047003.3,N
1573544435.4,286047003.2,N
1573544455.2,286047002.2,N
1573544475.1,286047000.4,N
1573544476.0,286047000.4,N
1573544495.8,286047000.9,N
1573544515.6,286047000.8,N
1573544535.5,286047000.4,N
1573544555.3,286046999.1,N
1573544575.1,286046998.3,N
1573544595.9,286046997.6,N
1573544615.7,286046997.7,N
1573544635.6,286046996.8,N
1573544655.4,286046998.1,N
1573544675.2,286047002.2,N
1573544695.1,286047000.5,N
1573544696.0,286047000.5,N
1573544715.8,286047000.8,N
1573544735.7,286047001.2,N
1573544755.5,286046998.8,N
1573544775.3,286046998.2,N
1573544795.2,286047001.8,N
1573544815.0,286047003.7,N
1573544815.9,286047003.7,N
1573544835.8,286047001.5,N
1573544855.6,286047001.5,N
1573544875.4,286047003.6,N
1573544895.3,286047006.9,N
1573544915.1,286047006.9,N
1573544935.8,286047005.2,N
1573544955.7,286047007.2,N
1573544975.5,286047005.2,N
1573544995.4,286047005.9,N
1573545015.2,286047003.2,N
1573545035.0,286047004.5,N
1573545035.9,286047004.5,N
1573545055.8,286047004.7,N
1573545075.6,286047005.9,N
1573545095.4,286047004.9,N
1573545115.3,286047006.7,N
1573545135.1,286047007.2,N
1573545155.9,286047003.8,N
1573545175.7,286047002.5,N
1573545195.5,286046999.4,N
1573545215.4,286046995.3,N
1573545235.2,286046999.4,N
1573545255.1,286046995.3,N
1573545256.0,286046995.3,N
1573545275.8,286046999.0,N
1573545295.6,286046996.6,N
1573545315.5,286046995.0,N
1573545335.3,286046995.0,N
1573545355.2,286046995.3,N
1573545375.9,286046995.8,N
1573545395.7,286046995.7,N
1573545415.6,286046996.2,N
1573545435.4,286046998.0,N
1573545455.2,286046998.3,N
1573545475.1,286046998.7,N
1573545476.0,286046998.7,N
1573545495.8,286046995.3,N
1573545515.7,286046994.2,N
1573545535.5,286046993.9,N
1573545555.3,286046995.9,N
1573545575.2,286046996.1,N
1573545595.0,286046998.8,N
1573545595.9,286046998.8,N
